Vorticity
nan nan nan nan nan nan nan nan nan nan nan nan nan nan nan nan nan nan nan nan nan nan nan nan nan nan nan nan nan nan nan nan nan nan nan nan nan nan nan nan nan nan nan nan nan
nan 6 6 7 7 6 7 7 7 7 7 8 8 8 8 11 15 8 12 11 13 4 -1 -0 5 9 4 11 13 13 8 8 11 12 6 11 10 7 1 4 6 13 14 12 nan
nan 6 5 5 6 7 7 7 7 7 7 7 8 8 8 12 15 16 6 12 11 2 -2 1 7 4 12 11 2 16 13 9 11 8 9 11 8 9 12 12 8 9 5 3 nan
nan 6 6 5 6 7 6 7 7 7 7 8 8 9 15 15 4 11 9 14 10 6 3 5 7 7 16 15 9 7 5 11 11 9 5 6 10 7 11 21 19 12 6 5 nan
nan 6 6 6 6 6 7 7 7 7 8 9 9 12 18 10 10 3 5 9 7 6 4 4 4 13 11 10 8 4 6 7 8 10 11 6 5 11 10 11 12 8 6 5 nan
nan 7 7 6 7 7 7 7 8 8 10 12 11 15 12 2 14 5 6 5 9 6 4 4 4 6 9 5 12 9 7 5 6 8 4 7 6 5 7 8 9 6 6 5 nan
nan 7 7 6 7 7 7 7 8 9 12 15 15 10 10 11 1 8 7 6 10 7 5 7 4 3 8 15 10 3 4 6 5 1 9 -3 3 8 9 5 4 5 7 8 nan
nan 7 7 7 7 7 7 7 9 13 16 16 13 7 7 18 6 5 6 8 7 8 6 8 8 5 11 13 10 9 1 -4 7 3 5 1 12 9 5 5 6 6 7 7 nan
nan 6 6 7 7 7 8 8 21 19 15 13 9 7 4 10 14 8 10 7 8 8 6 3 13 11 16 3 -3 8 8 15 2 8 6 17 13 11 6 5 7 8 8 9 nan
nan 7 6 7 7 6 15 26 22 18 12 3 5 12 23 7 14 15 10 8 7 7 5 6 8 13 7 7 10 6 2 12 9 8 -0 13 15 12 7 5 7 8 8 8 nan
nan 7 7 6 7 10 22 28 20 13 6 3 6 -1 6 12 10 17 14 8 6 8 7 8 3 11 3 10 6 -7 17 10 4 8 4 14 10 10 8 6 8 7 8 9 nan
nan 7 7 7 7 19 21 9 5 8 19 13 2 2 -3 10 9 14 12 7 7 6 7 4 8 5 8 8 -1 7 7 5 7 5 11 10 6 12 8 7 8 8 8 8 nan
nan 7 7 7 20 24 10 14 4 13 15 15 20 11 7 3 8 14 10 6 8 7 5 2 7 5 10 -1 11 7 6 2 2 7 9 7 14 8 10 7 7 9 8 9 nan
nan 8 6 18 19 13 18 4 6 12 15 26 22 15 13 5 13 10 17 3 4 11 4 6 6 7 8 4 9 3 6 2 6 4 9 9 8 20 9 8 7 7 8 8 nan
nan 8 11 13 14 4 3 4 13 12 10 29 19 13 22 5 6 24 9 3 3 8 8 7 6 10 5 4 -1 3 13 2 2 6 12 6 4 17 9 9 8 8 8 9 nan
nan 6 11 15 12 9 1 11 17 13 10 6 14 15 15 10 -0 16 6 8 8 10 9 7 6 7 5 5 4 5 1 6 7 9 10 7 15 10 12 10 10 10 8 9 nan
nan 8 8 12 3 3 19 20 12 11 8 11 8 10 6 11 15 7 11 9 6 9 13 12 6 8 7 7 6 7 3 7 10 7 18 15 4 10 16 15 15 10 8 9 nan
nan 14 16 11 9 7 13 14 12 12 2 12 15 11 12 8 12 6 7 7 8 4 6 14 9 9 6 10 6 11 0 2 4 6 8 9 9 6 13 10 10 14 10 8 nan
nan 17 11 13 17 11 14 8 6 8 12 -4 11 11 12 9 9 7 10 9 8 2 2 15 13 4 8 10 5 6 7 1 6 3 6 16 10 6 6 4 7 14 13 10 nan
nan 15 23 20 13 9 11 9 2 2 9 9 2 11 11 14 12 4 7 11 7 5 3 1 13 10 13 8 13 5 9 7 3 9 14 9 10 15 11 7 11 9 11 13 nan
nan 12 22 17 10 12 13 11 2 3 4 18 13 3 13 15 10 2 6 10 15 6 1 -0 14 13 10 10 10 10 7 10 5 9 6 8 11 14 12 8 7 18 18 12 nan
nan 11 8 10 7 9 14 9 8 1 2 7 10 18 17 11 10 11 10 9 11 7 9 4 4 17 14 8 9 7 13 5 5 4 -1 6 25 21 5 6 10 17 17 13 nan
nan 17 7 10 9 9 12 13 12 10 6 3 5 9 12 16 15 13 7 12 14 14 9 4 2 14 13 8 12 8 10 5 2 4 9 9 4 12 8 7 16 11 14 12 nan
nan 18 16 7 8 12 22 18 12 9 13 4 5 9 14 9 14 19 16 13 7 12 15 8 1 6 5 11 13 14 6 4 3 4 7 7 2 6 2 8 5 11 16 11 nan
nan 16 11 5 15 12 10 19 28 12 5 12 10 13 11 12 11 14 16 11 7 12 15 11 5 1 6 11 10 9 8 8 5 2 3 4 6 -1 8 10 7 17 11 10 nan
nan 8 7 16 5 11 18 10 19 24 10 5 7 10 9 14 16 12 15 18 12 6 7 9 11 11 9 10 14 9 9 7 6 6 2 4 4 10 11 7 9 6 11 10 nan
nan nan nan nan nan nan nan nan nan nan nan nan nan nan nan nan nan nan nan nan nan nan nan nan nan nan nan nan nan nan nan nan nan nan nan nan nan nan nan nan nan nan nan nan nan
CAPE
0 0 0 0 0 0 0 0 0 0 0 0 0 0 0 0 0 0 0 0 0 175 111 0 30 0 40 49 153 201 148 96 4 3 99 149 210 269 461 537 394 342 354 210 237
0 0 0 0 0 0 0 0 0 0 0 0 0 0 0 0 0 0 0 0 259 580 0 0 0 0 0 0 104 92 144 54 4 32 92 114 233 375 638 649 664 746 297 276 300
0 0 0 0 0 0 0 0 0 0 0 0 0 0 0 0 0 0 428 208 228 141 0 0 0 0 1 12 154 193 201 31 32 95 86 98 216 304 285 924 634 532 353 200 77
0 0 0 0 0 0 0 0 0 0 0 0 0 0 0 0 0 0 183 268 421 0 0 0 0 0 12 50 136 275 175 65 37 60 87 96 185 235 496 633 778 664 474 281 93
0 0 0 0 0 0 0 0 0 0 0 0 0 0 0 0 0 0 44 40 0 0 0 0 0 0 43 52 255 339 179 5 2 27 91 148 203 338 651 717 694 614 517 376 295
0 0 0 0 0 0 0 0 0 0 0 0 0 0 0 0 0 0 0 0 0 0 0 0 0 0 9 39 129 339 298 49 25 56 86 156 276 315 618 753 663 577 465 428 484
0 0 0 0 0 0 0 0 0 0 0 0 0 0 0 0 0 0 0 0 0 0 0 0 0 0 38 220 248 368 358 171 174 119 96 92 112 341 655 738 777 640 522 350 287
0 0 0 0 0 0 0 0 0 0 0 0 0 0 0 0 0 0 0 0 0 0 0 0 0 0 18 326 264 358 222 158 283 179 125 289 108 415 556 677 705 768 741 591 451
0 0 0 0 0 0 0 0 0 0 0 0 0 0 0 0 0 0 0 0 0 0 0 0 0 0 123 217 170 198 21 42 102 213 196 389 105 215 379 408 624 711 733 725 814
1 0 0 0 0 0 0 0 0 0 0 0 0 0 0 0 0 0 0 0 0 0 0 0 0 6 91 95 96 154 172 103 114 119 193 248 136 201 204 199 292 417 545 584 644
0 0 0 0 0 0 0 0 0 0 0 0 0 0 0 0 0 0 0 0 0 0 0 0 0 6 42 2 27 117 55 75 91 46 97 175 331 404 270 144 120 175 304 429 505
0 0 0 0 0 0 0 0 0 0 0 0 0 0 0 0 0 0 0 0 0 0 0 0 0 9 36 27 26 45 64 68 4 46 56 18 24 461 436 190 98 76 106 93 174
1 0 0 0 0 0 0 0 0 0 0 0 0 0 0 0 0 0 0 0 0 0 0 0 0 11 28 40 18 46 56 16 19 0 0 0 1 82 409 213 28 94 157 102 49
0 1 0 0 0 0 0 0 0 0 0 0 0 0 0 0 0 0 0 0 0 0 0 0 1 6 10 16 7 52 11 1 1 0 14 0 5 0 161 228 48 9 55 204 112
0 1 0 0 0 0 0 0 0 0 0 0 0 0 0 0 0 0 0 0 0 0 0 0 1 6 11 1 17 13 11 0 1 0 2 0 12 9 18 173 131 43 12 16 267
0 0 0 0 0 0 0 0 0 0 0 0 0 0 0 0 0 0 0 0 0 0 0 0 0 1 0 0 14 3 0 0 0 0 10 20 3 171 7 43 176 105 50 51 125
0 0 0 0 0 0 0 0 0 0 0 0 0 0 0 0 0 0 0 0 0 0 0 0 0 0 0 0 5 7 3 5 7 5 24 36 3 15 0 0 28 189 88 70 144
0 0 0 0 0 0 0 0 0 0 0 0 0 0 0 0 0 0 0 0 0 0 0 0 0 0 0 0 4 0 0 8 28 27 61 41 11 59 4 1 0 38 189 63 91
0 0 0 0 0 0 0 0 0 0 0 0 0 0 0 0 0 0 0 0 0 0 0 0 0 0 0 0 0 0 0 1 26 43 48 46 2 5 0 0 0 0 59 195 105
0 0 0 0 0 0 0 0 0 0 0 0 0 0 0 0 0 0 0 0 0 0 0 0 0 0 0 0 0 0 0 0 8 43 66 59 1 12 0 0 0 4 0 104 225
0 11 44 0 0 0 0 0 0 0 0 0 0 0 0 0 0 0 0 0 0 0 0 0 0 0 0 0 0 0 0 0 5 4 77 45 32 17 1 42 92 84 56 49 235
85 38 78 0 0 0 0 0 0 0 0 0 0 0 0 0 0 0 0 0 0 0 0 0 0 0 0 0 0 0 0 0 3 10 3 64 72 0 1 0 7 83 138 147 300
50 112 56 9 16 0 0 0 0 0 0 0 0 0 0 0 0 0 0 0 0 0 0 0 0 0 0 0 0 0 0 0 0 7 32 48 57 0 0 0 0 22 312 426 509
23 100 39 19 1 17 5 0 0 0 0 0 0 0 0 0 0 0 0 0 0 0 0 0 0 0 0 0 0 0 0 0 0 2 11 14 43 44 2 0 0 102 271 525 771
64 60 10 141 35 42 46 18 0 0 0 0 0 0 0 0 0 0 0 0 0 0 0 0 0 0 0 0 0 0 0 0 0 0 0 22 52 33 19 0 9 104 517 799 1160
108 13 21 32 24 84 12 51 11 0 0 0 0 0 0 0 0 0 0 0 0 0 0 0 0 0 0 0 0 0 0 0 0 0 0 6 23 16 2 4 0 321 1141 1261 1420
94 38 41 74 62 64 67 34 22 14 0 0 0 0 0 0 0 2 0 0 3 0 0 0 0 0 0 0 0 0 0 0 0 0 0 0 0 2 1 0 0 0 388 1378 1578